[[{"header":{"parameterUnit":"m.s-1","parameterCategory":1,"la1":30.2991,"la2":30.254,"lo1":-89.0895,"lo2":-89.0444,"dy":0.0017,"dx":0.0017,"nx":28,"ny":28,"refTime":"2024-02-20T03:00:00:Z","depth":0,"parameterNumber":2,"parameterNumberName":"U-component_of_WINDS"},"data":[0,0,0,0,0,0,0,0,0,0,0,0,0,0,0,0,0,0,0,0,0,0,0,0,0,0,0,0,0,0,0,0,0,0,0,0,0,0,0,0,0,0,0,0,0,0,0,0,0,0,0,0,0,0,0,0,0,0,3.6503,3.6504,0,3.6661,3.6662,3.6664,3.6593,3.6589,3.6585,3.6581,3.6745,3.6753,3.6761,0,0,0,0,0,0,0,0,0,0,0,0,0,3.614,3.6147,3.6502,3.6505,3.6506,3.666,3.6663,3.6665,3.6593,3.6589,3.6584,3.6579,3.6742,3.6752,3.6762,0,0,0,0,0,0,0,0,0,0,0,0,0,3.6298,3.6149,3.6502,3.6489,3.649,3.666,3.6663,3.6665,3.6594,3.6589,3.6583,3.6577,3.6739,3.6751,3.6763,3.6955,0,0,3.68,3.6805,0,0,0,0,0,0,0,0,3.6289,3.6311,3.6489,3.6491,3.6491,3.6601,3.6595,3.6763,3.6596,3.6555,3.6581,3.6574,3.6702,3.6717,3.6759,3.6963,3.697,3.6801,3.6808,3.6813,3.6817,0,0,0,0,0,0,0,3.6278,3.6304,3.6565,3.6492,3.6493,3.6476,3.6492,3.6626,3.666,3.6558,3.6553,3.6573,3.6701,3.6748,3.6763,3.6972,3.68,3.6811,3.6819,3.6823,3.734,3.7346,0,0,0,0,0,0,3.6267,3.6295,3.656,3.657,3.6373,3.6487,3.6505,3.6572,3.6658,3.6665,3.6578,3.6569,3.673,3.6749,3.6768,3.6998,3.6813,3.6824,3.6831,3.7334,3.7342,3.7349,0,0,0,0,0,0,3.626,3.6291,3.6554,3.6431,3.6463,3.65,3.6575,3.6578,3.6624,3.6673,3.6679,3.6619,3.6726,3.6751,3.6909,3.7003,3.683,3.6841,3.7326,3.7336,3.7345,3.746,0,0,0,0,0,0,3.625,3.6289,3.6363,3.6434,3.647,3.6692,3.6581,3.6585,3.6645,3.6635,3.6713,3.672,3.6724,3.6891,3.6921,3.7016,3.685,3.7318,3.7331,3.7342,3.7448,3.7473,3.7493,0,0,0,0,0,3.6237,3.6389,3.6367,3.6399,3.6563,3.6697,3.6718,3.6718,3.6653,3.6727,3.6758,3.6718,3.6988,3.6908,3.6941,3.7041,3.7312,3.7327,3.7341,3.7438,3.7468,3.7493,0,0,0,0,0,0,3.633,3.6398,3.6374,3.6554,3.662,3.6685,3.6778,3.675,3.6837,3.6824,3.6821,3.6839,3.7002,3.7038,3.6947,3.7231,3.714,3.7162,3.7202,3.7231,3.7253,3.7241,3.686,0,0,0,0,0,3.6371,3.6474,3.6529,3.6682,3.6717,3.6742,3.6801,3.6795,3.6864,3.6892,3.6934,3.7003,3.7103,3.7169,3.7264,3.7453,3.7468,3.7538,3.7561,3.7579,3.7598,3.7699,3.773,3.7397,3.7397,3.7396,0,0,3.6457,3.6508,3.6573,3.6702,3.6753,3.686,3.6766,3.6884,3.6963,3.691,3.706,3.7094,3.7171,3.7344,3.7423,3.7379,3.7693,3.7598,3.7612,3.7621,3.7717,3.7749,3.7777,3.7407,3.7405,3.7403,0,0,3.667,3.6718,3.6851,3.6903,3.6981,3.6996,3.7028,3.7097,3.7117,3.7268,3.723,3.7325,3.7497,3.7553,3.7604,3.7836,3.7802,3.7867,3.7986,3.8084,3.8111,3.8134,3.8215,3.8245,3.7886,3.7886,3.7886,0,3.6768,3.6927,3.6923,3.7043,3.7101,3.7056,3.719,3.7241,3.7346,3.7387,3.7336,3.7551,3.7599,3.7784,3.7841,3.7884,3.792,3.7858,3.8107,3.813,3.8152,3.823,3.8261,3.7893,3.7892,3.7892,3.7891,0,3.7043,3.7154,3.7252,3.7353,3.7421,3.7548,3.7563,3.7633,3.7622,3.7643,3.7797,3.7853,3.7958,3.8001,3.7992,3.8186,3.8155,3.8106,3.8014,3.8191,3.8264,3.8294,3.7904,3.7901,3.7899,3.7897,0,0,3.7318,3.7415,3.7451,3.7495,3.7577,3.7663,3.7787,3.7889,3.7948,3.8022,3.8126,3.8273,3.8227,3.8285,3.828,3.8367,3.8546,3.8307,3.8308,3.8348,3.8761,3.8797,3.8832,3.8524,3.8529,3.8534,3.8755,0,3.7536,3.7753,3.7752,3.7953,3.8055,3.8013,3.8122,3.8183,3.8206,3.8296,3.8322,3.8425,3.8357,3.8392,3.8476,3.8506,3.8628,3.849,3.862,3.8625,3.8601,3.887,3.8909,3.9115,3.8783,3.8788,3.8792,0,3.7818,3.79,3.811,3.8175,3.8218,3.8315,3.8408,3.8494,3.8563,3.8574,3.8638,3.862,3.8746,3.8651,3.8824,3.873,3.8783,3.8806,3.8814,3.8826,3.8718,3.8888,3.918,3.9211,3.8837,3.8833,3.883,0,3.7997,3.8159,3.8306,3.8345,3.8426,3.8495,3.8531,3.8594,3.8655,3.8736,3.8775,3.887,3.8922,3.8996,3.9004,3.8934,3.9179,3.9084,3.919,3.919,3.9243,3.924,3.9547,3.9279,3.9279,3.9278,3.9278,0,3.8239,3.8369,3.8387,3.8477,3.8621,3.8619,3.8762,3.8793,3.8849,3.8944,3.8915,3.9005,3.9011,3.9103,3.911,3.9252,3.9276,3.9288,3.9288,3.929,3.9288,3.9324,3.931,3.9286,3.9285,3.9283,3.9282,0,3.8463,3.848,3.8636,3.8699,3.8718,3.8821,3.8875,3.8961,3.898,3.9101,3.9129,3.916,3.9267,3.9282,3.9408,3.9413,3.9583,3.9569,3.9559,3.9557,3.9662,3.9651,4.0002,4.0047,3.9751,3.9754,3.9756,0,3.8616,3.8715,3.8787,3.8848,3.8888,3.8988,3.9049,3.9051,3.9116,3.9201,3.9277,3.938,3.9463,3.9636,3.967,3.9766,3.9753,3.9869,3.9767,3.9766,3.9753,3.9747,3.9756,3.9889,3.9892,3.9895,3.9897,0,3.8886,3.8889,3.8978,3.907,3.9143,3.9216,3.9285,3.9337,3.9347,3.9422,3.953,3.9595,3.9722,3.9825,3.992,3.9957,3.993,3.9929,3.9958,3.9961,3.9951,3.9956,3.9612,3.9921,3.9918,3.9917,3.9915,3.9914,3.9078,3.9163,3.9227,3.9327,3.9378,3.9443,3.9526,3.9555,3.9645,3.9749,3.9744,3.9864,3.9929,4.0052,4.0097,4.019,4.0152,4.0195,4.0205,4.0216,4.0225,3.9936,4.0207,4.0206,4.0206,4.0205,4.0205,0,3.9345,3.9384,3.9475,3.9571,3.965,3.9616,3.9689,3.9757,3.9862,3.9925,4.0007,4.0131,4.023,4.0271,4.0369,4.0435,4.0425,4.0461,4.0455,4.0464,4.0254,4.0219,4.0468,4.0468,4.0467,4.0467,4.0467,4.0467,3.9493,3.9635,3.9645,3.9812,3.985,3.9966,4.001,4.0069,4.0119,4.0259,4.0341,4.0367,4.0421,4.0522,4.0611,4.0621,4.0657,4.0699,4.0703,4.0506,4.0479,4.0454,4.042,4.0707,4.0708,4.0905,4.0906,4.0908]},{"header":{"parameterUnit":"m.s-1","parameterCategory":1,"la1":30.2991,"la2":30.254,"lo1":-89.0895,"lo2":-89.0444,"dy":0.0017,"dx":0.0017,"nx":28,"ny":28,"refTime":"2024-02-20T03:00:00:Z","depth":0,"parameterNumber":3,"parameterNumberName":"V-component_of_WINDS"},"data":[0,0,0,0,0,0,0,0,0,0,0,0,0,0,0,0,0,0,0,0,0,0,0,0,0,0,0,0,0,0,0,0,0,0,0,0,0,0,0,0,0,0,0,0,0,0,0,0,0,0,0,0,0,0,0,0,0,0,-0.1608,-0.1608,0,-0.1557,-0.1556,-0.1556,-0.1558,-0.1559,-0.156,-0.156,-0.1507,-0.1504,-0.1502,0,0,0,0,0,0,0,0,0,0,0,0,0,-0.1709,-0.1707,-0.1608,-0.1608,-0.1607,-0.1557,-0.1556,-0.1556,-0.1558,-0.1559,-0.156,-0.1561,-0.1507,-0.1505,-0.1502,0,0,0,0,0,0,0,0,0,0,0,0,0,-0.1662,-0.1706,-0.1608,-0.1602,-0.1601,-0.1557,-0.1556,-0.1555,-0.1558,-0.1559,-0.156,-0.1561,-0.1508,-0.1505,-0.1502,-0.146,0,0,-0.1492,-0.1491,0,0,0,0,0,0,0,0,-0.1664,-0.1658,-0.1604,-0.1603,-0.1601,-0.1565,-0.1572,-0.1523,-0.1557,-0.1574,-0.156,-0.1562,-0.1525,-0.1521,-0.1508,-0.1458,-0.1456,-0.1492,-0.149,-0.1489,-0.1488,0,0,0,0,0,0,0,-0.1668,-0.166,-0.1588,-0.1603,-0.1601,-0.1602,-0.1597,-0.1563,-0.1544,-0.1573,-0.1573,-0.1567,-0.1525,-0.1512,-0.1507,-0.1455,-0.1492,-0.1489,-0.1487,-0.1486,-0.1369,-0.1368,0,0,0,0,0,0,-0.1672,-0.1663,-0.159,-0.1586,-0.1636,-0.1599,-0.1593,-0.1576,-0.1544,-0.1541,-0.1566,-0.1567,-0.1516,-0.1511,-0.1505,-0.1456,-0.1489,-0.1486,-0.1484,-0.1371,-0.1369,-0.1368,0,0,0,0,0,0,-0.1674,-0.1666,-0.1592,-0.1625,-0.1615,-0.1596,-0.1576,-0.1574,-0.1561,-0.1539,-0.1536,-0.1556,-0.1517,-0.151,-0.1472,-0.1454,-0.1484,-0.1481,-0.1372,-0.137,-0.1368,-0.1355,0,0,0,0,0,0,-0.1677,-0.1667,-0.165,-0.1624,-0.1614,-0.1559,-0.1575,-0.1572,-0.1556,-0.1557,-0.1529,-0.1526,-0.1517,-0.1477,-0.1469,-0.145,-0.1479,-0.1373,-0.1371,-0.1369,-0.1357,-0.1353,-0.135,0,0,0,0,0,-0.1681,-0.1648,-0.1649,-0.1641,-0.1593,-0.1558,-0.1552,-0.1543,-0.1554,-0.1538,-0.1524,-0.1526,-0.1457,-0.1473,-0.1464,-0.1444,-0.1375,-0.1372,-0.1369,-0.1359,-0.1354,-0.135,0,0,0,0,0,0,-0.1671,-0.1644,-0.1646,-0.1603,-0.1583,-0.1558,-0.1537,-0.1538,-0.1514,-0.1516,-0.1506,-0.15,-0.1462,-0.1449,-0.1467,-0.1403,-0.1417,-0.1413,-0.1413,-0.1408,-0.1404,-0.1408,-0.1476,0,0,0,0,0,-0.1665,-0.1638,-0.1616,-0.1581,-0.1571,-0.1556,-0.154,-0.1536,-0.1514,-0.1505,-0.1489,-0.1468,-0.1441,-0.1424,-0.1398,-0.1356,-0.135,-0.1338,-0.1334,-0.1331,-0.1327,-0.1305,-0.1299,-0.1359,-0.1359,-0.1359,0,0,-0.165,-0.1632,-0.1616,-0.1579,-0.1562,-0.1536,-0.1549,-0.1519,-0.15,-0.1501,-0.1464,-0.1452,-0.1427,-0.1388,-0.1369,-0.1376,-0.131,-0.1328,-0.1326,-0.1323,-0.1302,-0.1296,-0.1291,-0.1357,-0.1357,-0.1358,0,0,-0.1609,-0.1593,-0.1562,-0.1546,-0.1522,-0.1512,-0.1505,-0.1481,-0.1473,-0.1436,-0.1437,-0.1413,-0.1368,-0.1351,-0.1336,-0.1292,-0.1293,-0.1284,-0.1264,-0.1243,-0.1238,-0.1234,-0.1219,-0.1213,-0.128,-0.128,-0.128,0,-0.1594,-0.1554,-0.1546,-0.1518,-0.1502,-0.1503,-0.1472,-0.1457,-0.1425,-0.1414,-0.1422,-0.1366,-0.135,-0.1306,-0.1296,-0.1284,-0.1276,-0.1286,-0.1239,-0.1235,-0.1231,-0.1216,-0.1211,-0.1279,-0.1279,-0.1279,-0.1279,0,-0.1536,-0.1509,-0.1487,-0.1457,-0.1439,-0.1409,-0.1398,-0.1381,-0.1378,-0.1368,-0.1332,-0.1313,-0.1284,-0.1274,-0.127,-0.123,-0.1235,-0.1241,-0.1256,-0.1225,-0.1211,-0.1205,-0.1278,-0.1278,-0.1278,-0.1278,0,0,-0.1486,-0.1455,-0.1447,-0.1434,-0.1408,-0.1387,-0.1358,-0.133,-0.1316,-0.1295,-0.127,-0.1233,-0.1239,-0.1223,-0.1218,-0.1199,-0.1166,-0.1208,-0.1207,-0.1201,-0.1122,-0.1117,-0.1111,-0.1168,-0.1166,-0.1166,-0.1124,0,-0.1443,-0.1392,-0.1386,-0.134,-0.1315,-0.1317,-0.1292,-0.1274,-0.1264,-0.1242,-0.1231,-0.1205,-0.1215,-0.1205,-0.1186,-0.1174,-0.115,-0.1177,-0.1145,-0.1144,-0.1151,-0.1104,-0.1098,-0.106,-0.1119,-0.1118,-0.1117,0,-0.1386,-0.1364,-0.1316,-0.1295,-0.1285,-0.1262,-0.1237,-0.1216,-0.1196,-0.119,-0.1173,-0.1171,-0.1142,-0.1158,-0.1118,-0.1136,-0.1123,-0.1116,-0.1114,-0.111,-0.1128,-0.1099,-0.1047,-0.1042,-0.1108,-0.1109,-0.111,0,-0.1355,-0.1314,-0.128,-0.1269,-0.1244,-0.1228,-0.1217,-0.1198,-0.1182,-0.1161,-0.1151,-0.1126,-0.1112,-0.1093,-0.1085,-0.1098,-0.1046,-0.1061,-0.1041,-0.1041,-0.1029,-0.103,-0.0975,-0.1021,-0.1021,-0.1021,-0.1021,0,-0.1308,-0.1278,-0.1266,-0.1246,-0.1214,-0.1207,-0.1175,-0.1165,-0.1148,-0.1126,-0.1126,-0.1105,-0.1095,-0.1073,-0.1067,-0.1035,-0.1029,-0.1024,-0.1023,-0.1024,-0.1025,-0.1015,-0.1017,-0.102,-0.102,-0.102,-0.1021,0,-0.1267,-0.1258,-0.1222,-0.1201,-0.1196,-0.1173,-0.1155,-0.1136,-0.1127,-0.1099,-0.1092,-0.1079,-0.1053,-0.1043,-0.1011,-0.1007,-0.0971,-0.0972,-0.0978,-0.0977,-0.0958,-0.096,-0.0895,-0.0886,-0.0937,-0.0937,-0.0936,0,-0.1238,-0.1215,-0.1193,-0.1179,-0.1167,-0.1143,-0.1128,-0.1121,-0.1105,-0.1081,-0.1065,-0.1039,-0.1018,-0.0977,-0.0965,-0.0941,-0.0941,-0.092,-0.0937,-0.094,-0.0941,-0.0943,-0.0941,-0.0916,-0.0916,-0.0915,-0.0915,0,-0.1186,-0.1183,-0.1161,-0.1138,-0.1119,-0.1101,-0.1082,-0.107,-0.1061,-0.1043,-0.1017,-0.1001,-0.097,-0.0945,-0.0921,-0.0909,-0.0911,-0.091,-0.0904,-0.0905,-0.091,-0.0908,-0.0969,-0.0911,-0.0912,-0.0912,-0.0912,-0.0912,-0.115,-0.1131,-0.1113,-0.1089,-0.1075,-0.1058,-0.1039,-0.1029,-0.1007,-0.0981,-0.0979,-0.0951,-0.0933,-0.0901,-0.0889,-0.0867,-0.0873,-0.0864,-0.0862,-0.086,-0.0859,-0.0914,-0.0863,-0.0863,-0.0863,-0.0863,-0.0863,0,-0.1099,-0.1088,-0.1066,-0.1041,-0.1022,-0.1026,-0.1007,-0.0991,-0.0967,-0.095,-0.093,-0.0901,-0.0877,-0.0863,-0.084,-0.0825,-0.0825,-0.0819,-0.082,-0.0818,-0.0855,-0.0862,-0.0819,-0.0819,-0.0819,-0.0819,-0.0819,-0.0819,-0.107,-0.1038,-0.1033,-0.0995,-0.0984,-0.0957,-0.0946,-0.0931,-0.0918,-0.0886,-0.0866,-0.0858,-0.0842,-0.0818,-0.0797,-0.0793,-0.0785,-0.0778,-0.0775,-0.081,-0.0815,-0.0819,-0.0826,-0.0776,-0.0776,-0.074,-0.074,-0.074]}]]